TimeCST,TemperatureF,Dew PointF,Humidity,Sea Level PressureIn,VisibilityMPH,Wind Direction,Wind SpeedMPH,Gust SpeedMPH,PrecipitationIn,Events,Conditions,WindDirDegrees,DateUTC
12:53 AM,-0.9,-5.1,83,30.19,10.0,WNW,6.9,-,N/A,,Clear,290,2013-01-01 06:53:00
1:53 AM,-2.9,-7.1,82,30.21,10.0,West,5.8,-,N/A,,Scattered Clouds,270,2013-01-01 07:53:00
2:03 AM,-2.2,-5.8,85,30.09,10.0,West,5.8,-,N/A,,Mostly Cloudy,270,2013-01-01 08:03:00
3:53 AM,1.9,-2.0,83,30.21,10.0,West,3.5,-,N/A,,Overcast,260,2013-01-01 09:53:00
4:53 AM,3.0,-0.9,84,30.22,10.0,West,5.8,-,N/A,,Overcast,280,2013-01-01 10:53:00
5:53 AM,3.0,-2.0,80,30.23,10.0,West,4.6,-,N/A,,Overcast,270,2013-01-01 11:53:00
6:53 AM,-0.9,-5.1,83,30.24,10.0,West,5.8,-,N/A,,Overcast,270,2013-01-01 12:53:00
7:31 AM,-2.2,-7.6,78,30.11,10.0,West,4.6,-,N/A,,Scattered Clouds,260,2013-01-01 13:31:00
7:53 AM,-5.1,-8.0,87,30.25,10.0,WSW,4.6,-,N/A,,Clear,250,2013-01-01 13:53:00
8:53 AM,-2.0,-6.0,83,30.25,10.0,West,6.9,-,N/A,,Clear,260,2013-01-01 14:53:00
9:53 AM,3.9,-2.0,76,30.24,10.0,West,10.4,-,N/A,,Clear,260,2013-01-01 15:53:00
10:53 AM,6.1,-2.9,67,30.22,10.0,WSW,10.4,-,N/A,,Clear,250,2013-01-01 16:53:00
11:53 AM,9.0,-2.0,61,30.17,10.0,West,10.4,-,N/A,,Clear,270,2013-01-01 17:53:00
12:53 PM,10.9,-2.0,56,30.14,10.0,WSW,10.4,-,N/A,,Clear,250,2013-01-01 18:53:00
1:53 PM,12.0,-0.9,56,30.11,10.0,WSW,9.2,-,N/A,,Clear,240,2013-01-01 19:53:00
2:53 PM,12.0,-2.0,53,30.12,10.0,WSW,9.2,-,N/A,,Clear,240,2013-01-01 20:53:00
3:53 PM,10.9,-2.0,56,30.12,10.0,WSW,12.7,-,N/A,,Clear,250,2013-01-01 21:53:00
4:53 PM,9.0,-2.9,59,30.12,10.0,WSW,10.4,-,N/A,,Clear,250,2013-01-01 22:53:00
5:53 PM,8.1,-2.9,61,30.12,10.0,WSW,13.8,-,N/A,,Clear,250,2013-01-01 23:53:00
6:12 PM,8.6,-0.4,67,29.99,10.0,West,11.5,-,N/A,,Mostly Cloudy,260,2013-01-02 00:12:00
6:53 PM,10.0,1.0,67,30.11,10.0,West,8.1,-,N/A,,Overcast,260,2013-01-02 00:53:00
7:53 PM,10.0,3.0,73,30.11,10.0,WSW,8.1,-,N/A,,Overcast,250,2013-01-02 01:53:00
8:15 PM,10.4,3.2,73,29.97,10.0,WSW,8.1,-,N/A,,Overcast,250,2013-01-02 02:15:00
8:53 PM,10.0,3.9,76,30.10,10.0,WSW,8.1,-,N/A,,Overcast,250,2013-01-02 02:53:00
9:53 PM,10.9,6.1,81,30.09,10.0,West,10.4,-,N/A,,Overcast,260,2013-01-02 03:53:00
10:22 PM,10.4,6.8,85,29.97,10.0,West,9.2,-,N/A,,Overcast,260,2013-01-02 04:22:00
10:53 PM,10.9,7.0,84,30.08,10.0,West,9.2,-,N/A,,Overcast,260,2013-01-02 04:53:00
11:53 PM,10.9,8.1,88,30.07,10.0,West,6.9,-,N/A,,Overcast,260,2013-01-02 05:53:00